This is the latest recevied weather packets stored in our database for station/object K0CVS. If no packets are shown the sender has not sent any weather packets the latest 10 day(s).
| Time | Temp. | Humidity | Pressure | Rain* | Wind** | Luminosity | Snow |
|---|---|---|---|---|---|---|---|
| 1777565363 | 16.67° C | 50% | 1019.2 hPa | 0 mm | - | 79 W/m² | - |
| 1777565059 | 15.56° C | 52% | 1019.4 hPa | 0 mm | - | 164 W/m² | - |
| 1777564755 | 15.56° C | 52% | 1019.3 hPa | 0 mm | - | 162 W/m² | - |
| 1777564450 | 15.56° C | 52% | 1019.5 hPa | 0 mm | - | 150 W/m² | - |
| 1777564146 | 15.56° C | 54% | 1019.4 hPa | 0 mm | - | 158 W/m² | - |
| 1777563842 | 15.56° C | 53% | 1019.5 hPa | 0 mm | - | 189 W/m² | - |
| 1777563539 | 15.56° C | 57% | 1019.4 hPa | 0 mm | - | 199 W/m² | - |
| 1777563238 | 15° C | 57% | 1019.2 hPa | 0 mm | - | 182 W/m² | - |
| 1777562935 | 15° C | 56% | 1019.4 hPa | 0 mm | - | 184 W/m² | - |
| 1777562630 | 14.44° C | 58% | 1019.4 hPa | 0 mm | - | 146 W/m² | - |
| 1777562329 | 14.44° C | 57% | 1019.4 hPa | 0 mm | - | 149 W/m² | - |
| 1777562026 | 14.44° C | 58% | 1019.5 hPa | 0 mm | - | 152 W/m² | - |
| 1777561723 | 14.44° C | 59% | 1019.4 hPa | 0 mm | - | 119 W/m² | - |
| 1777561418 | 13.89° C | 60% | 1019.4 hPa | 0 mm | - | 152 W/m² | - |
| 1777561114 | 13.89° C | 59% | 1019.6 hPa | 0 mm | - | 152 W/m² | - |
| 1777560809 | 14.44° C | 58% | 1019.7 hPa | 0 mm | - | 109 W/m² | - |
| 1777560507 | 14.44° C | 58% | 1019.4 hPa | 0 mm | - | 127 W/m² | - |
| 1777560205 | 13.89° C | 58% | 1019.4 hPa | 0 mm | - | 109 W/m² | - |
| 1777559901 | 13.89° C | 58% | 1019.4 hPa | 0 mm | - | 125 W/m² | - |
| 1777559596 | 13.89° C | 62% | 1019.5 hPa | 0 mm | - | 159 W/m² | - |
| 1777559294 | 13.89° C | 61% | 1019.4 hPa | 0 mm | - | 100 W/m² | - |
| 1777558990 | 13.33° C | 62% | 1019.4 hPa | 0 mm | - | 123 W/m² | - |
| 1777558686 | 13.33° C | 62% | 1019.3 hPa | 0 mm | - | 117 W/m² | - |
| 1777558382 | 13.33° C | 63% | 1019.4 hPa | 0 mm | - | 104 W/m² | - |
| 1777558078 | 13.33° C | 64% | 1019.3 hPa | 0 mm | - | 113 W/m² | - |
* Rain latest hour (hover to see other rain measurements)
** Current wind speed in m/s (hover to see current wind gust speed)